• In Belgien
  • Länderverzeichnis
  • Für 7 Tage
  • Wassertemperatur
  • Satellitenkarten
  • Wetterkarte
  • Widgets
  • user-avatar
    Anmelden

    Stündliche Wetter Brecht

    Heute, 23 September, Sonntag

    Zeit Temperatur Niederschläge Wind Luftdruck Luftfeuchtigkeit
    00:00 +12°C° 0 mm 2 m/S 759 mmHg 92%
    01:00 +12°C° 0.2 mm 2 m/S 758 mmHg 92%
    02:00 +12°C° 0.2 mm 2 m/S 758 mmHg 92%
    03:00 +12°C° 0.2 mm 2 m/S 757 mmHg 92%
    04:00 +12°C° 0.2 mm 2 m/S 757 mmHg 92%
    05:00 +12°C° 0.2 mm 2 m/S 756 mmHg 92%
    06:00 +12°C° 0.2 mm 2 m/S 756 mmHg 93%
    07:00 +12°C° 0.3 mm 2 m/S 756 mmHg 92%
    08:00 +12°C° 0.3 mm 2 m/S 756 mmHg 92%
    09:00 +12°C° 0.3 mm 2 m/S 756 mmHg 91%
    10:00 +11°C° 1.8 mm 3 m/S 756 mmHg 91%
    11:00 +11°C° 1.8 mm 4 m/S 756 mmHg 91%
    12:00 +10°C° 1.8 mm 5 m/S 756 mmHg 91%
    13:00 +10°C° 0.6 mm 5 m/S 757 mmHg 88%
    14:00 +10°C° 0.6 mm 5 m/S 758 mmHg 86%
    15:00 +10°C° 0.6 mm 5 m/S 758 mmHg 83%
    16:00 +11°C° 0.2 mm 4 m/S 759 mmHg 83%
    17:00 +11°C° 0.2 mm 4 m/S 760 mmHg 84%
    18:00 +11°C° 0.2 mm 4 m/S 761 mmHg 84%
    19:00 +10°C° 0.1 mm 4 m/S 763 mmHg 83%
    20:00 +10°C° 0.1 mm 3 m/S 764 mmHg 82%
    21:00 +10°C° 0.1 mm 3 m/S 765 mmHg 82%
    22:00 +10°C° 0 mm 3 m/S 766 mmHg 82%
    23:00 +9°C° 0 mm 3 m/S 767 mmHg 81%

    Morgen, 24 September, Montag

    Zeit Temperatur Niederschläge Wind Luftdruck Luftfeuchtigkeit
    00:00 +9°C° 0 mm 3 m/S 768 mmHg 81%
    01:00 +9°C° 0 mm 3 m/S 769 mmHg 81%
    02:00 +9°C° 0 mm 3 m/S 769 mmHg 80%
    03:00 +9°C° 0 mm 3 m/S 770 mmHg 79%
    04:00 +9°C° 0 mm 2 m/S 771 mmHg 79%
    05:00 +9°C° 0 mm 2 m/S 771 mmHg 79%
    06:00 +9°C° 0 mm 2 m/S 772 mmHg 79%
    07:00 +10°C° 0.1 mm 3 m/S 772 mmHg 74%
    08:00 +12°C° 0.1 mm 3 m/S 773 mmHg 69%
    09:00 +13°C° 0.1 mm 4 m/S 773 mmHg 64%
    10:00 +14°C° 0.2 mm 4 m/S 773 mmHg 64%
    11:00 +14°C° 0.2 mm 4 m/S 773 mmHg 63%
    12:00 +14°C° 0.2 mm 4 m/S 774 mmHg 63%
    13:00 +14°C° 0.1 mm 4 m/S 774 mmHg 60%
    14:00 +15°C° 0.1 mm 5 m/S 774 mmHg 57%
    15:00 +15°C° 0.1 mm 5 m/S 773 mmHg 55%
    16:00 +13°C° 0 mm 4 m/S 774 mmHg 58%
    17:00 +12°C° 0 mm 4 m/S 774 mmHg 62%
    18:00 +10°C° 0 mm 3 m/S 774 mmHg 66%
    19:00 +10°C° 0 mm 2 m/S 775 mmHg 69%
    20:00 +9°C° 0 mm 2 m/S 775 mmHg 72%
    21:00 +9°C° 0 mm 2 m/S 776 mmHg 74%
    22:00 +10°C° 0 mm 1 m/S 776 mmHg 76%
    23:00 +9°C° 0 mm 1 m/S 776 mmHg 79%

    übermorgen, 25 September, Dienstag

    Zeit Temperatur Niederschläge Wind Luftdruck Luftfeuchtigkeit
    00:00 +9°C° 0 mm 1 m/S 776 mmHg 81%
    01:00 +9°C° 0 mm 1 m/S 776 mmHg 82%
    02:00 +7°C° 0 mm 0 m/S 776 mmHg 82%
    03:00 +7°C° 0 mm 0 m/S 775 mmHg 83%
    04:00 +7°C° 0 mm 0 m/S 776 mmHg 84%
    05:00 +8°C° 0 mm 1 m/S 776 mmHg 85%
    06:00 +8°C° 0 mm 1 m/S 776 mmHg 85%
    07:00 +10°C° 0 mm 1 m/S 776 mmHg 77%
    08:00 +12°C° 0 mm 1 m/S 776 mmHg 70%
    09:00 +14°C° 0 mm 1 m/S 776 mmHg 62%
    10:00 +15°C° 0 mm 1 m/S 776 mmHg 57%
    11:00 +15°C° 0 mm 2 m/S 776 mmHg 52%
    12:00 +16°C° 0 mm 2 m/S 776 mmHg 47%
    13:00 +17°C° 0 mm 2 m/S 775 mmHg 47%
    14:00 +17°C° 0 mm 2 m/S 775 mmHg 46%
    15:00 +17°C° 0 mm 2 m/S 774 mmHg 45%
    16:00 +15°C° 0 mm 2 m/S 774 mmHg 49%
    17:00 +14°C° 0 mm 1 m/S 774 mmHg 54%
    18:00 +12°C° 0 mm 1 m/S 774 mmHg 59%
    19:00 +12°C° 0 mm 2 m/S 774 mmHg 60%
    20:00 +10°C° 0 mm 2 m/S 774 mmHg 62%
    21:00 +10°C° 0 mm 2 m/S 774 mmHg 63%
    22:00 +9°C° 0 mm 2 m/S 774 mmHg 64%
    23:00 +9°C° 0 mm 2 m/S 773 mmHg 65%

    26 September, Mittwoch

    Zeit Temperatur Niederschläge Wind Luftdruck Luftfeuchtigkeit
    00:00 +9°C° 0 mm 2 m/S 773 mmHg 67%
    01:00 +8°C° 0 mm 2 m/S 773 mmHg 67%
    02:00 +8°C° 0 mm 2 m/S 772 mmHg 68%
    03:00 +8°C° 0 mm 2 m/S 772 mmHg 68%
    04:00 +7°C° 0 mm 2 m/S 772 mmHg 68%
    05:00 +7°C° 0 mm 2 m/S 772 mmHg 68%
    06:00 +7°C° 0 mm 2 m/S 772 mmHg 68%
    07:00 +9°C° 0 mm 2 m/S 772 mmHg 62%
    08:00 +12°C° 0 mm 2 m/S 771 mmHg 56%
    09:00 +14°C° 0 mm 2 m/S 771 mmHg 50%
    10:00 +16°C° 0 mm 2 m/S 771 mmHg 46%
    11:00 +17°C° 0 mm 2 m/S 771 mmHg 43%
    12:00 +19°C° 0 mm 2 m/S 771 mmHg 39%
    13:00 +19°C° 0 mm 2 m/S 770 mmHg 39%
    14:00 +19°C° 0 mm 3 m/S 770 mmHg 40%
    15:00 +19°C° 0 mm 3 m/S 769 mmHg 40%
    16:00 +18°C° 0 mm 2 m/S 769 mmHg 45%
    17:00 +16°C° 0 mm 2 m/S 769 mmHg 49%
    18:00 +14°C° 0 mm 2 m/S 770 mmHg 54%
    19:00 +14°C° 0 mm 2 m/S 770 mmHg 55%
    20:00 +14°C° 0 mm 2 m/S 770 mmHg 57%
    21:00 +13°C° 0 mm 2 m/S 770 mmHg 58%
    22:00 +13°C° 0 mm 2 m/S 770 mmHg 59%
    23:00 +13°C° 0 mm 2 m/S 770 mmHg 60%

    27 September, Donnerstag

    Zeit Temperatur Niederschläge Wind Luftdruck Luftfeuchtigkeit
    00:00 +12°C° 0 mm 2 m/S 770 mmHg 61%
    01:00 +12°C° 0 mm 2 m/S 770 mmHg 62%
    02:00 +12°C° 0 mm 2 m/S 770 mmHg 62%
    03:00 +12°C° 0 mm 2 m/S 769 mmHg 63%
    04:00 +10°C° 0 mm 2 m/S 769 mmHg 64%
    05:00 +10°C° 0 mm 2 m/S 769 mmHg 65%
    06:00 +10°C° 0 mm 2 m/S 769 mmHg 66%
    07:00 +13°C° 0 mm 2 m/S 769 mmHg 61%
    08:00 +15°C° 0 mm 2 m/S 769 mmHg 57%
    09:00 +17°C° 0 mm 2 m/S 769 mmHg 52%
    10:00 +18°C° 0 mm 2 m/S 769 mmHg 48%
    11:00 +20°C° 0 mm 2 m/S 768 mmHg 44%
    12:00 +21°C° 0 mm 2 m/S 768 mmHg 40%
    13:00 +21°C° 0 mm 2 m/S 767 mmHg 40%
    14:00 +23°C° 0 mm 2 m/S 767 mmHg 40%
    15:00 +23°C° 0 mm 2 m/S 766 mmHg 39%
    16:00 +21°C° 0 mm 1 m/S 766 mmHg 45%
    17:00 +19°C° 0 mm 1 m/S 766 mmHg 50%
    18:00 +16°C° 0 mm 1 m/S 766 mmHg 55%
    19:00 +15°C° 0 mm 1 m/S 766 mmHg 57%
    20:00 +13°C° 0 mm 0 m/S 766 mmHg 60%
    21:00 +13°C° 0 mm 0 m/S 766 mmHg 62%
    22:00 +12°C° 0 mm 0 m/S 766 mmHg 63%
    23:00 +13°C° 0 mm 1 m/S 766 mmHg 64%

    28 September, Freitag

    Zeit Temperatur Niederschläge Wind Luftdruck Luftfeuchtigkeit
    00:00 +13°C° 0 mm 1 m/S 765 mmHg 66%
    01:00 +12°C° 0 mm 1 m/S 765 mmHg 67%
    02:00 +12°C° 0 mm 1 m/S 765 mmHg 69%
    03:00 +12°C° 0 mm 1 m/S 765 mmHg 70%
    04:00 +11°C° 0 mm 1 m/S 765 mmHg 71%
    05:00 +11°C° 0 mm 1 m/S 764 mmHg 72%
    06:00 +11°C° 0 mm 1 m/S 764 mmHg 73%
    07:00 +13°C° 0 mm 1 m/S 764 mmHg 67%
    08:00 +15°C° 0 mm 1 m/S 764 mmHg 61%
    09:00 +18°C° 0 mm 1 m/S 764 mmHg 54%
    10:00 +19°C° 0 mm 1 m/S 764 mmHg 51%
    11:00 +21°C° 0 mm 1 m/S 764 mmHg 47%
    12:00 +21°C° 0 mm 2 m/S 764 mmHg 43%
    13:00 +21°C° 0 mm 2 m/S 763 mmHg 43%
    14:00 +21°C° 0 mm 2 m/S 763 mmHg 44%
    15:00 +23°C° 0 mm 2 m/S 763 mmHg 44%
    16:00 +20°C° 0 mm 3 m/S 763 mmHg 52%
    17:00 +18°C° 0 mm 3 m/S 763 mmHg 60%
    18:00 +16°C° 0 mm 3 m/S 763 mmHg 68%
    19:00 +15°C° 0 mm 4 m/S 764 mmHg 75%
    20:00 +14°C° 0 mm 4 m/S 764 mmHg 81%
    21:00 +14°C° 0 mm 5 m/S 764 mmHg 88%
    22:00 +13°C° 0 mm 5 m/S 764 mmHg 88%
    23:00 +13°C° 0 mm 5 m/S 764 mmHg 88%
    Mehr zeigen